When you browse on this site, cookies collect data to enhance your experience and personalize the content and advertising you see.
Visit our Privacy Policy to learn more. By continuing to use the site, you agree to this use of cookies and data.
  • In Hungary
  • List of Countries
  • For 7 days
  • Water Temperature
  • Satellite Maps
  • Weather Map
  • News
  • Weather Widgets
  • user-avatar
    Login

    Hourly Weather Menchicy

    Today, 21 November, Wednesday

    Time Temperature Precipitation Wind Pressure Humidity
    00:00 -2°C° 0 mm 1 mps 751 mmHg 86%
    01:00 -4°C° 0 mm 2 mps 751 mmHg 86%
    02:00 -4°C° 0 mm 2 mps 750 mmHg 86%
    03:00 -4°C° 0 mm 2 mps 750 mmHg 85%
    04:00 -4°C° 0 mm 2 mps 750 mmHg 84%
    05:00 -4°C° 0 mm 2 mps 750 mmHg 83%
    06:00 -4°C° 0 mm 2 mps 750 mmHg 81%
    07:00 -4°C° 0 mm 2 mps 750 mmHg 79%
    08:00 -5°C° 0 mm 3 mps 750 mmHg 78%
    09:00 -5°C° 0 mm 3 mps 750 mmHg 74%
    10:00 -4°C° 0 mm 3 mps 750 mmHg 71%
    11:00 -4°C° 0 mm 3 mps 750 mmHg 68%
    12:00 -2°C° 0 mm 3 mps 750 mmHg 69%
    13:00 -2°C° 0 mm 3 mps 749 mmHg 70%
    14:00 -2°C° 0 mm 3 mps 749 mmHg 72%
    15:00 -3°C° 0 mm 2 mps 749 mmHg 75%
    16:00 -3°C° 0 mm 2 mps 749 mmHg 78%
    17:00 -4°C° 0 mm 2 mps 749 mmHg 82%
    18:00 -4°C° 0 mm 2 mps 749 mmHg 83%
    19:00 -4°C° 0 mm 2 mps 749 mmHg 84%
    20:00 -4°C° 0 mm 2 mps 749 mmHg 85%
    21:00 -4°C° 0 mm 2 mps 749 mmHg 86%
    22:00 -4°C° 0 mm 2 mps 749 mmHg 87%
    23:00 -4°C° 0 mm 2 mps 749 mmHg 89%

    Tomorrow, 22 November, Thursday

    Time Temperature Precipitation Wind Pressure Humidity
    00:00 -4°C° 0 mm 2 mps 749 mmHg 89%
    01:00 -5°C° 0 mm 3 mps 749 mmHg 89%
    02:00 -5°C° 0 mm 3 mps 749 mmHg 90%
    03:00 -5°C° 0 mm 3 mps 749 mmHg 86%
    04:00 -5°C° 0 mm 3 mps 749 mmHg 83%
    05:00 -5°C° 0 mm 3 mps 748 mmHg 80%
    06:00 -5°C° 0 mm 3 mps 748 mmHg 80%
    07:00 -5°C° 0 mm 3 mps 748 mmHg 81%
    08:00 -5°C° 0 mm 3 mps 748 mmHg 81%
    09:00 -4°C° 0 mm 3 mps 748 mmHg 79%
    10:00 -4°C° 0 mm 3 mps 748 mmHg 77%
    11:00 -3°C° 0 mm 4 mps 747 mmHg 75%
    12:00 -3°C° 0 mm 4 mps 747 mmHg 74%
    13:00 -3°C° 0 mm 4 mps 747 mmHg 74%
    14:00 -3°C° 0 mm 4 mps 746 mmHg 73%
    15:00 -3°C° 0 mm 4 mps 746 mmHg 78%
    16:00 -5°C° 0 mm 5 mps 746 mmHg 82%
    17:00 -5°C° 0 mm 5 mps 746 mmHg 87%
    18:00 -5°C° 0 mm 5 mps 746 mmHg 87%
    19:00 -5°C° 0 mm 5 mps 746 mmHg 86%
    20:00 -6°C° 0 mm 5 mps 746 mmHg 86%
    21:00 -5°C° 0 mm 5 mps 746 mmHg 84%
    22:00 -5°C° 0 mm 5 mps 746 mmHg 82%
    23:00 -4°C° 0 mm 5 mps 746 mmHg 80%

    Day after tomorrow, 23 November, Friday

    Time Temperature Precipitation Wind Pressure Humidity
    00:00 -3°C° 0 mm 4 mps 747 mmHg 82%
    01:00 -3°C° 0 mm 4 mps 747 mmHg 83%
    02:00 -3°C° 0 mm 4 mps 747 mmHg 85%
    03:00 -2°C° 0 mm 3 mps 747 mmHg 87%
    04:00 -4°C° 0 mm 3 mps 748 mmHg 88%
    05:00 -4°C° 0 mm 3 mps 748 mmHg 90%
    06:00 -4°C° 0 mm 3 mps 749 mmHg 91%
    07:00 -4°C° 0 mm 3 mps 749 mmHg 93%
    08:00 -3°C° 0 mm 2 mps 749 mmHg 94%
    09:00 -3°C° 0 mm 2 mps 750 mmHg 89%
    10:00 -2°C° 0 mm 2 mps 750 mmHg 85%
    11:00 -1°C° 0 mm 2 mps 751 mmHg 80%
    12:00 -1°C° 0 mm 2 mps 751 mmHg 80%
    13:00 +1°C° 0 mm 1 mps 751 mmHg 80%
    14:00 +1°C° 0 mm 1 mps 751 mmHg 79%
    15:00 0°C° 0 mm 1 mps 751 mmHg 83%
    16:00 -1°C° 0 mm 1 mps 751 mmHg 88%
    17:00 -1°C° 0 mm 1 mps 751 mmHg 92%
    18:00 -4°C° 0 mm 2 mps 751 mmHg 93%
    19:00 -4°C° 0 mm 2 mps 751 mmHg 93%
    20:00 -4°C° 0 mm 2 mps 751 mmHg 94%
    21:00 -4°C° 0 mm 2 mps 751 mmHg 94%
    22:00 -4°C° 0 mm 2 mps 751 mmHg 95%
    23:00 -4°C° 0 mm 2 mps 750 mmHg 95%

    24 November, Saturday

    Time Temperature Precipitation Wind Pressure Humidity
    00:00 -5°C° 0 mm 3 mps 750 mmHg 95%
    01:00 -5°C° 0 mm 3 mps 750 mmHg 94%
    02:00 -5°C° 0 mm 3 mps 750 mmHg 94%
    03:00 -5°C° 0 mm 3 mps 749 mmHg 93%
    04:00 -5°C° 0 mm 4 mps 749 mmHg 91%
    05:00 -5°C° 0 mm 4 mps 748 mmHg 90%
    06:00 -5°C° 0 mm 4 mps 748 mmHg 89%
    07:00 -5°C° 0 mm 4 mps 748 mmHg 87%
    08:00 -7°C° 0 mm 4 mps 747 mmHg 86%
    09:00 -5°C° 0 mm 4 mps 747 mmHg 83%
    10:00 -5°C° 0 mm 4 mps 747 mmHg 80%
    11:00 -5°C° 0 mm 4 mps 746 mmHg 77%
    12:00 -4°C° 0 mm 4 mps 746 mmHg 74%
    13:00 -4°C° 0 mm 4 mps 746 mmHg 72%
    14:00 -4°C° 0 mm 4 mps 745 mmHg 70%
    15:00 -4°C° 0 mm 4 mps 745 mmHg 73%
    16:00 -5°C° 0 mm 4 mps 745 mmHg 76%
    17:00 -5°C° 0 mm 4 mps 744 mmHg 79%
    18:00 -5°C° 0 mm 4 mps 744 mmHg 79%
    19:00 -5°C° 0 mm 4 mps 743 mmHg 80%
    20:00 -5°C° 0 mm 4 mps 743 mmHg 80%
    21:00 -5°C° 0 mm 4 mps 743 mmHg 79%
    22:00 -5°C° 0 mm 4 mps 743 mmHg 78%
    23:00 -5°C° 0 mm 4 mps 743 mmHg 77%

    25 November, Sunday

    Time Temperature Precipitation Wind Pressure Humidity
    00:00 -5°C° 0 mm 3 mps 743 mmHg 77%
    01:00 -4°C° 0 mm 3 mps 742 mmHg 78%
    02:00 -4°C° 0 mm 3 mps 742 mmHg 78%
    03:00 -5°C° 0 mm 3 mps 742 mmHg 79%
    04:00 -4°C° 0 mm 2 mps 742 mmHg 80%
    05:00 -4°C° 0 mm 2 mps 741 mmHg 82%
    06:00 -4°C° 0.1 mm 2 mps 741 mmHg 83%
    07:00 -4°C° 0.1 mm 2 mps 741 mmHg 85%
    08:00 -2°C° 0.1 mm 1 mps 741 mmHg 86%
    09:00 -2°C° 0.3 mm 1 mps 741 mmHg 87%
    10:00 -1°C° 0.3 mm 1 mps 741 mmHg 88%
    11:00 -3°C° 0.3 mm 2 mps 741 mmHg 89%
    12:00 -3°C° 0.4 mm 2 mps 740 mmHg 90%
    13:00 -3°C° 0.4 mm 2 mps 740 mmHg 91%
    14:00 -3°C° 0.4 mm 2 mps 740 mmHg 92%
    15:00 -3°C° 0.4 mm 2 mps 740 mmHg 92%
    16:00 -3°C° 0.4 mm 2 mps 739 mmHg 93%
    17:00 -3°C° 0.4 mm 2 mps 739 mmHg 94%
    18:00 -3°C° 0.2 mm 2 mps 739 mmHg 94%
    19:00 -3°C° 0.2 mm 2 mps 738 mmHg 94%
    20:00 -3°C° 0.2 mm 2 mps 738 mmHg 94%
    21:00 -3°C° 0.2 mm 2 mps 738 mmHg 95%
    22:00 -3°C° 0.2 mm 2 mps 737 mmHg 95%
    23:00 -3°C° 0.2 mm 2 mps 737 mmHg 95%

    26 November, Monday

    Time Temperature Precipitation Wind Pressure Humidity
    00:00 -1°C° 0.1 mm 1 mps 737 mmHg 96%
    01:00 -1°C° 0.1 mm 1 mps 736 mmHg 96%
    02:00 -1°C° 0.1 mm 1 mps 736 mmHg 96%
    03:00 -1°C° 0.2 mm 1 mps 735 mmHg 96%
    04:00 -1°C° 0.2 mm 1 mps 735 mmHg 96%
    05:00 -1°C° 0.2 mm 1 mps 735 mmHg 97%
    06:00 -1°C° 0.4 mm 1 mps 734 mmHg 97%
    07:00 -1°C° 0.4 mm 1 mps 734 mmHg 97%
    08:00 -1°C° 0.4 mm 1 mps 734 mmHg 97%
    09:00 0°C° 0.2 mm 1 mps 734 mmHg 96%
    10:00 -2°C° 0.2 mm 2 mps 734 mmHg 94%
    11:00 -2°C° 0.2 mm 2 mps 734 mmHg 93%
    12:00 -2°C° 0.1 mm 2 mps 734 mmHg 92%
    13:00 -2°C° 0.1 mm 3 mps 734 mmHg 91%
    14:00 -2°C° 0.1 mm 3 mps 734 mmHg 90%
    15:00 -2°C° 0 mm 3 mps 734 mmHg 90%
    16:00 -4°C° 0 mm 3 mps 735 mmHg 90%
    17:00 -4°C° 0 mm 3 mps 735 mmHg 91%
    18:00 -5°C° 0 mm 3 mps 735 mmHg 90%
    19:00 -5°C° 0 mm 3 mps 736 mmHg 90%
    20:00 -6°C° 0 mm 3 mps 736 mmHg 90%
    21:00 -6°C° 0 mm 3 mps 736 mmHg 91%
    22:00 -7°C° 0 mm 3 mps 737 mmHg 92%
    23:00 -8°C° 0 mm 3 mps 737 mmHg 93%
    Show more